Flag for Switzerland Weather past 2 weeks in Bern, Bern, Switzerland

Now
73 °F

Scattered clouds.


Feels Like: 76 °F
Forecast: 50 / 78 °F
Wind: 8 mph from West

Location: Bern / Belp

Current Time: Sep 17, 2014 at 3:54:07 PM

Latest Report: Sep 17, 2014 at 3:20 PM


Visibility: N/A

Pressure: 29.86 "Hg

Humidity: 65%

Dew point: 61 °F

Location of BernLocation

Historic Weather in Bern — Graph

°F

Bern temperature yesterday

Maximum temperature yesterday: 77 °F (at 3:20 PM)
Minimum temperature yesterday: 52 °F (at 6:50 AM)
Average temperature yesterday: 62 °F

Past Weeks' High & Low Weather Summary

 TemperatureHumidityPressure
High81 °F (Sep 8, 2:50 PM)100% (Sep 3, 1:50 AM)30.12 "Hg (Sep 3, 1:50 AM)
Low43 °F (Sep 14, 6:20 AM)43% (Sep 2, 5:20 PM)29.86 "Hg (Sep 17, 2:50 PM)
Average60 °F82%30.01 "Hg
* Reported Sep 2 2:20 PM — Sep 17 2:50 PM, Bern, Weather by CustomWeather, © 2014

Note: Actual official high and low records may vary slightly from our data, if they occured in-between our weather recording intervals... More about our weather records

Advertising

Bern weather history for previous 24 hours

 ConditionsComfort  
Time TempWeatherWind HumidityBarometerVisibility
2:50 PM
Sep 17
73 °FScattered clouds.6 mph65%29.86 "HgN/A
2:20 PM73 °FScattered clouds.7 mph65%29.89 "HgN/A
1:50 PM73 °FSunny.7 mph65%29.89 "Hg10 mi
1:20 PM72 °FPartly sunny.5 mph65%29.89 "HgN/A
12:50 PM73 °FScattered clouds.5 mph61%29.89 "HgN/A
12:20 PM70 °FSunny.2 mph64%29.92 "Hg10 mi
11:50 AM68 °FSunny.No wind69%29.92 "Hg10 mi
11:20 AM68 °FSunny.2 mph64%29.92 "Hg10 mi
10:50 AM66 °FPassing clouds.5 mph68%29.92 "HgN/A
10:20 AM64 °FScattered clouds.5 mph78%29.92 "HgN/A
9:50 AM63 °FScattered clouds.5 mph83%29.92 "HgN/A
9:20 AM63 °FScattered clouds.6 mph83%29.92 "HgN/A
8:50 AM59 °FSunny.5 mph88%29.92 "Hg10 mi
8:20 AM55 °FSunny.6 mph100%29.92 "Hg10 mi
7:50 AM54 °FPassing clouds.2 mph100%29.92 "HgN/A
7:20 AM52 °FPassing clouds.3 mph100%29.92 "Hg4 mi
6:50 AM52 °FPassing clouds.3 mph100%29.95 "HgN/A
6:20 AM52 °FPassing clouds.2 mph100%29.92 "HgN/A
5:50 AM52 °FPassing clouds.No wind100%29.95 "HgN/A
5:20 AM52 °FPartly cloudy.1 mph100%29.95 "Hg6 mi
4:50 AM52 °FPassing clouds.1 mph100%29.95 "Hg6 mi
4:20 AM52 °FFog.No wind94%29.95 "Hg2 mi
3:50 AM52 °FCool.2 mph100%29.95 "Hg4 mi
3:20 AM52 °FFog.1 mph100%29.95 "Hg1 mi
2:50 AM54 °FPassing clouds.1 mph94%29.95 "Hg3 mi
2:20 AM54 °FCool.2 mph100%29.95 "Hg6 mi
1:50 AM54 °FCool.1 mph94%29.95 "Hg5 mi
1:20 AM54 °FCool.2 mph100%29.95 "Hg5 mi
12:20 AM55 °FCool.1 mph100%29.95 "Hg6 mi
11:50 PM
Sep 16
55 °FClear.1 mph100%29.95 "Hg10 mi
11:20 PM55 °FClear.1 mph94%29.95 "Hg10 mi
10:50 PM57 °FClear.1 mph94%29.95 "Hg10 mi
10:20 PM57 °FPassing clouds.3 mph94%29.95 "HgN/A
9:50 PM57 °FPassing clouds.2 mph94%29.95 "HgN/A
9:20 PM59 °FPassing clouds.1 mph94%29.95 "HgN/A
8:50 PM61 °FClear.1 mph94%29.95 "Hg10 mi
8:20 PM61 °FSunny.1 mph94%29.92 "Hg10 mi
7:50 PM66 °FSunny.1 mph73%29.92 "Hg10 mi
7:20 PM68 °FSunny.6 mph69%29.92 "Hg10 mi
6:20 PM73 °FPassing clouds.2 mph53%29.92 "HgN/A
5:50 PM75 °FPassing clouds.2 mph50%29.92 "HgN/A
5:20 PM75 °FPassing clouds.5 mph50%29.92 "HgN/A
4:50 PM75 °FPassing clouds.3 mph54%29.92 "HgN/A
4:20 PM75 °FScattered clouds.3 mph54%29.95 "HgN/A
3:50 PM75 °FPassing clouds.5 mph54%29.95 "HgN/A
3:20 PM77 °FPassing clouds.3 mph47%29.95 "HgN/A
Weather by CustomWeather, © 2014

See weather overviewHow to use our weather pages